Time,TemperatureF,DewpointF,PressureIn,WindDirection,WindDirectionDegrees,WindSpeedMPH,WindSpeedGustMPH,Humidity,HourlyPrecipIn,Conditions,Clouds,dailyrainin,SoftwareType,DateUTC
2013-07-14 05:16:00,75.4,67.3,30.17,SSW,205,2.0,2.0,76,0.00,,---,0.00,VWS V14.01,2013-07-14 09:16:00,
2013-07-14 05:20:00,75.2,67.1,30.17,SW,218,0.0,2.0,76,0.00,,---,0.00,VWS V14.01,2013-07-14 09:20:00,
2013-07-14 05:21:00,75.1,67.0,30.17,SSE,157,12.0,12.0,76,0.00,,---,0.00,VWS V14.01,2013-07-14 09:21:00,
2013-07-14 05:26:00,75.9,66.6,30.17,SSE,149,17.0,18.0,73,0.00,,---,0.00,VWS V14.01,2013-07-14 09:26:00,
2013-07-14 05:30:00,76.1,66.8,30.17,SE,141,7.0,22.0,73,0.00,,---,0.00,VWS V14.01,2013-07-14 09:30:00,
2013-07-14 05:31:00,76.1,66.8,30.17,SSE,148,7.0,16.0,73,0.00,,---,0.00,VWS V14.01,2013-07-14 09:31:00,
2013-07-14 05:36:00,76.1,66.8,30.18,SE,128,9.0,16.0,73,0.00,,---,0.00,VWS V14.01,2013-07-14 09:36:00,
2013-07-14 05:40:00,76.2,66.9,30.18,SE,138,4.0,16.0,73,0.00,,---,0.00,VWS V14.01,2013-07-14 09:40:00,
2013-07-14 05:41:00,76.1,66.8,30.19,SSE,150,0.0,6.0,73,0.00,,---,0.00,VWS V14.01,2013-07-14 09:41:00,
2013-07-14 05:46:00,75.8,66.9,30.19,ESE,105,1.0,7.0,74,0.00,,---,0.00,VWS V14.01,2013-07-14 09:46:00,
2013-07-14 05:50:00,75.7,67.2,30.19,SSE,154,5.0,7.0,75,0.00,,---,0.00,VWS V14.01,2013-07-14 09:50:00,
2013-07-14 05:51:00,75.7,67.2,30.19,SSE,153,2.0,7.0,75,0.00,,---,0.00,VWS V14.01,2013-07-14 09:51:00,
2013-07-14 05:56:00,75.5,67.0,30.19,SSW,203,2.0,7.0,75,0.00,,---,0.00,VWS V14.01,2013-07-14 09:56:00,
2013-07-14 06:00:00,75.4,66.9,30.19,South,182,1.0,7.0,75,0.00,,---,0.00,VWS V14.01,2013-07-14 10:00:00,
2013-07-14 06:01:00,75.3,66.8,30.19,South,173,8.0,8.0,75,0.00,,---,0.00,VWS V14.01,2013-07-14 10:01:00,
2013-07-14 06:06:00,75.3,66.8,30.20,SSW,202,1.0,8.0,75,0.00,,---,0.00,VWS V14.01,2013-07-14 10:06:00,
2013-07-14 06:10:00,75.3,66.8,30.20,SW,226,0.0,8.0,75,0.00,,---,0.00,VWS V14.01,2013-07-14 10:10:00,
2013-07-14 06:11:00,75.2,66.7,30.20,SSE,155,4.0,4.0,75,0.00,,---,0.00,VWS V14.01,2013-07-14 10:11:00,
2013-07-14 06:16:00,75.1,67.0,30.20,NNE,12,0.0,7.0,76,0.00,,---,0.00,VWS V14.01,2013-07-14 10:16:00,
2013-07-14 06:20:00,75.0,66.9,30.20,SW,222,0.0,7.0,76,0.00,,---,0.00,VWS V14.01,2013-07-14 10:20:00,
2013-07-14 06:21:00,74.9,66.8,30.20,SSW,207,0.0,1.0,76,0.00,,---,0.00,VWS V14.01,2013-07-14 10:21:00,
2013-07-14 06:26:00,74.7,66.6,30.20,NW,310,0.0,1.0,76,0.00,,---,0.00,VWS V14.01,2013-07-14 10:26:00,
2013-07-14 06:30:00,74.6,66.9,30.20,NNW,333,1.0,1.0,77,0.00,,---,0.00,VWS V14.01,2013-07-14 10:30:00,
2013-07-14 06:40:00,76.2,66.9,30.18,SE,138,4.0,16.0,73,0.00,,---,0.00,VWS V14.01,2013-07-14 10:40:00,
2013-07-14 06:50:00,75.7,67.2,30.19,SSE,154,5.0,7.0,75,0.00,,---,0.00,VWS V14.01,2013-07-14 10:50:00,
2013-07-14 07:00:00,75.4,66.9,30.19,South,182,1.0,7.0,75,0.00,,---,0.00,VWS V14.01,2013-07-14 11:00:00,
2013-07-14 07:10:00,75.3,66.8,30.20,SW,226,0.0,8.0,75,0.00,,---,0.00,VWS V14.01,2013-07-14 11:10:00,
2013-07-14 07:20:00,75.0,66.9,30.20,SW,222,0.0,7.0,76,0.00,,---,0.00,VWS V14.01,2013-07-14 11:20:00,
2013-07-14 07:30:00,74.6,66.9,30.20,NNW,333,1.0,1.0,77,0.00,,---,0.00,VWS V14.01,2013-07-14 11:30:00,